Location: Caltech
(34.1382°N, 118.1253°W)
Time: 18:31:39
(UTC-08:00)

Oscar 10/S400 - Visible Passes

Search period start: 04 March 2015 00:00
Search period end: 14 March 2015 01:00
Orbit: 3873 x 35574 km, 25.8° (Epoch: 01 March)

Date Brightness Start Highest point End Pass type
(mag) Time Alt. Az. Time Alt. Az. Time Alt. Az.
04 Mar ? 13:51:47 10° W 00:40:58 32° SE 00:52:52 10° E visible
05 Mar ? 13:04:39 10° W 00:00:22 23° ESE 00:07:35 10° E visible
06 Mar ? 12:18:38 10° W 23:19:45 13° ESE 23:21:41 10° ESE visible
07 Mar ? 11:33:21 10° W 12:05:03 44° SSW 22:00:11 27° SSE visible
08 Mar ? 11:48:30 10° W 12:14:49 48° SSW 22:19:26 22° SSE visible
09 Mar ? 11:03:56 10° W 11:26:44 52° SSW 21:38:43 17° SE visible
10 Mar ? 10:19:32 10° W 10:39:57 56° SSW 20:58:02 10° SE visible
11 Mar ? 09:35:07 10° W 09:54:04 60° SSW 19:50:25 10° SE visible
12 Mar ? 08:50:39 10° W 09:08:45 63° S 10:11:14 10° ESE visible
